Regional Weather Roundup
Issued by NWS

Home | Current Version | Previous Version | Text Only | Print | Product List | Glossary On
Versions: 1 2 3 4 5 6 7 8 9 10 11 12 13 14 15 16 17 18 19 20 21 22 23 24 25 26 27 28 29 30 31 32 33 34 35 36 37 38 39 40 41 42 43 44 45 46 47 48 49 50
000
ASUS43 KLSX 241210
RWRMO

WEATHER SUMMARY FOR MISSOURI
NATIONAL WEATHER SERVICE SPRINGFIELD MO
700 AM CDT TUE MAY 24 2016

NOTE: "FAIR" INDICATES FEW OR NO CLOUDS BELOW 12,000 FEET WITH NO
       SIGNIFICANT WEATHER AND/OR OBSTRUCTIONS TO VISIBILITY.
       CURRENT SKY AND/OR WEATHER CONDITIONS ARE NOT AVAILABLE FOR
       CHILLICOTHE AND FARMINGTON.

MOZ001>031-035>038-043-044-053-054-241300-
...NORTHERN AND WESTERN MISSOURI...

CITY           SKY/WX    TMP DP  RH WIND       PRES   REMARKS
KANSAS CTY INT TSTM      63  60  90 S9        29.92F FOG
6HR MIN TEMP:  61; 6HR MAX TEMP:  63; 6HR PCP:  0.28;

KANSAS C DTWN  TSTM      64  62  93 E7        29.90F FOG
6HR MIN TEMP:  63; 6HR MAX TEMP:  66; 6HR PCP:  0.06;

LEE`S SUMMIT   TSTM      64  61  90 NW12      29.96R
6HR MIN TEMP:  63; 6HR MAX TEMP:  64; 6HR PCP:  0.08;

ST JOSEPH      LGT RAIN  63  61  93 SW6       29.93R
6HR MIN TEMP:  63; 6HR MAX TEMP:  66; 6HR PCP:  0.01;

CHILLICOTHE      N/A     64  62  93 CALM      29.94S
6HR MIN TEMP:  62; 6HR MAX TEMP:  67;

KIRKSVILLE     MOSUNNY   63  60  90 S3        29.95S
6HR MIN TEMP:  58; 6HR MAX TEMP:  67;


$$
MOZ066>068-077>081-088>096-101>105-241300-
...SOUTHWEST MISSOURI...

CITY           SKY/WX    TMP DP  RH WIND       PRES   REMARKS
SPRINGFIELD    MOSUNNY   64  61  90 S12       29.95S
6HR MIN TEMP:  61; 6HR MAX TEMP:  64;

JOPLIN         CLOUDY    68  64  87 S13       29.92F
6HR MIN TEMP:  64; 6HR MAX TEMP:  68;

BRANSON        PTSUNNY   63  63 100 CALM      29.99R FOG

$$
MOZ032>034-039>042-045>050-055>058-069>072-241300-
...CENTRAL MISSOURI...

CITY           SKY/WX    TMP DP  RH WIND       PRES   REMARKS
COLUMBIA       SUNNY     63  60  90 S6        29.98R
6HR MIN TEMP:  61; 6HR MAX TEMP:  67;

JEFFERSON CITY MOSUNNY   63  59  87 E3        29.97R
6HR MIN TEMP:  60; 6HR MAX TEMP:  69;

ROLLA          CLOUDY    66  59  78 S7        29.98R
6HR MIN TEMP:  59; 6HR MAX TEMP:  67;

SEDALIA        PTSUNNY   64  61  90 SE7       29.96R
6HR MIN TEMP:  60; 6HR MAX TEMP:  65;

WHITEMAN AFB   PTSUNNY   63  63 100 S8        29.93R
WARRENSBURG    CLOUDY    63  61  94 CALM      29.93S
OSAGE BEACH      N/A    N/A N/A N/A MISG        N/A

$$
MOZ051-052-059>065-241300-
...EAST CENTRAL MISSOURI...

CITY           SKY/WX    TMP DP  RH WIND       PRES   REMARKS
ST LOUIS INTL  CLOUDY    71  54  54 S7        30.00R
6HR MIN TEMP:  69; 6HR MAX TEMP:  71;

SPIRIT OF STL  PTSUNNY   69  56  62 S6        29.98R
6HR MIN TEMP:  61; 6HR MAX TEMP:  69;

ST CHARLES     CLOUDY    66  60  81 E5        29.99R
6HR MIN TEMP:  61; 6HR MAX TEMP:  66;


$$
MOZ072>076-082>087-097>100-106>115-241300-
...SOUTH CENTRAL AND SOUTHEAST MISSOURI...

CITY           SKY/WX    TMP DP  RH WIND       PRES   REMARKS
CAPE GIRARDEAU CLOUDY    66  59  78 SE3       30.01R
6HR MIN TEMP:  61; 6HR MAX TEMP:  66;

FARMINGTON     CLOUDY    63  60  90 CALM      30.03R
6HR MIN TEMP:  62; 6HR MAX TEMP:  65; 6HR PCP: TRACE;

POPLAR BLUFF   MOSUNNY   64  62  93 CALM      30.01R
6HR MIN TEMP:  62; 6HR MAX TEMP:  67; 6HR PCP: TRACE;

WEST PLAINS    CLOUDY    63  58  83 SE3       30.01S
6HR MIN TEMP:  61; 6HR MAX TEMP:  65; 6HR PCP:  0.06;


$$



USA.gov is the U.S. government's official web portal to all federal, state and local government web resources and services.